Time,TemperatureF,DewpointF,PressureIn,WindDirection,WindDirectionDegrees,WindSpeedMPH,WindSpeedGustMPH,Humidity,HourlyPrecipIn,Conditions,Clouds,dailyrainin,SoftwareType,DateUTC
2013-02-13 00:01:00,21.3,4.6,22.47,SW,231,10.0,21.0,48,0.00,,,0.00,Wunderground v.1.15,2013-02-13 07:01:00,
2013-02-13 00:03:00,21.4,4.7,22.47,SW,226,10.0,21.0,48,0.00,,,0.00,Wunderground v.1.15,2013-02-13 07:03:00,
2013-02-13 00:07:00,21.5,4.8,22.48,WNW,297,10.0,21.0,48,0.00,,,0.00,Wunderground v.1.15,2013-02-13 07:07:00,
2013-02-13 00:09:00,21.6,4.9,22.48,West,281,9.0,21.0,48,0.00,,,0.00,Wunderground v.1.15,2013-02-13 07:09:00,
2013-02-13 00:13:00,21.4,4.7,22.48,SSW,211,9.0,9.0,48,0.00,,,0.00,Wunderground v.1.15,2013-02-13 07:13:00,
2013-02-13 00:15:00,21.3,4.6,22.48,WSW,239,8.0,21.0,48,0.00,,,0.00,Wunderground v.1.15,2013-02-13 07:15:00,
2013-02-13 00:17:00,21.3,4.6,22.48,SW,235,8.0,21.0,48,0.00,,,0.00,Wunderground v.1.15,2013-02-13 07:17:00,
2013-02-13 00:21:00,21.5,5.3,22.48,SW,225,9.0,21.0,49,0.00,,,0.00,Wunderground v.1.15,2013-02-13 07:21:00,
2013-02-13 00:23:00,21.5,4.8,22.48,SSW,211,8.0,21.0,48,0.00,,,0.00,Wunderground v.1.15,2013-02-13 07:23:00,
2013-02-13 00:25:00,21.6,4.9,22.48,SW,216,9.0,21.0,48,0.00,,,0.00,Wunderground v.1.15,2013-02-13 07:25:00,
2013-02-13 00:29:00,21.9,5.2,22.47,WSW,245,11.0,21.0,48,0.00,,,0.00,Wunderground v.1.15,2013-02-13 07:29:00,
2013-02-13 00:33:00,22.1,4.9,22.47,SW,219,11.0,21.0,47,0.00,,,0.00,Wunderground v.1.15,2013-02-13 07:33:00,
2013-02-13 00:35:00,22.3,5.1,22.47,SW,216,12.0,21.0,47,0.00,,,0.00,Wunderground v.1.15,2013-02-13 07:35:00,
2013-02-13 00:41:00,22.1,4.4,22.46,SSW,204,13.0,21.0,46,0.00,,,0.00,Wunderground v.1.15,2013-02-13 07:41:00,
2013-02-13 00:43:00,22.0,4.3,22.46,SW,219,14.0,21.0,46,0.00,,,0.00,Wunderground v.1.15,2013-02-13 07:43:00,
2013-02-13 00:49:00,22.0,4.8,22.47,SW,226,13.0,21.0,47,0.00,,,0.00,Wunderground v.1.15,2013-02-13 07:49:00,
2013-02-13 00:51:00,21.9,4.7,22.46,WSW,250,13.0,21.0,47,0.00,,,0.00,Wunderground v.1.15,2013-02-13 07:51:00,
2013-02-13 00:55:00,22.0,4.8,22.47,WSW,243,12.0,21.0,47,0.00,,,0.00,Wunderground v.1.15,2013-02-13 07:55:00,
2013-02-13 01:01:00,22.2,5.0,22.47,West,278,11.0,21.0,47,0.00,,,0.00,Wunderground v.1.15,2013-02-13 08:01:00,
2013-02-13 01:07:00,22.3,5.1,22.47,WSW,238,8.0,21.0,47,0.00,,,0.00,Wunderground v.1.15,2013-02-13 08:07:00,
2013-02-13 01:09:00,22.4,5.2,22.47,WSW,249,8.0,21.0,47,0.00,,,0.00,Wunderground v.1.15,2013-02-13 08:09:00,
2013-02-13 01:15:00,22.3,5.1,22.47,West,269,8.0,10.0,47,0.00,,,0.00,Wunderground v.1.15,2013-02-13 08:15:00,
2013-02-13 01:19:00,22.2,5.0,22.47,WSW,243,7.0,21.0,47,0.00,,,0.00,Wunderground v.1.15,2013-02-13 08:19:00,
2013-02-13 01:23:00,22.0,4.8,22.47,SSW,212,6.0,6.0,47,0.00,,,0.00,Wunderground v.1.15,2013-02-13 08:23:00,
2013-02-13 01:25:00,22.0,4.8,22.47,WSW,257,6.0,11.0,47,0.00,,,0.00,Wunderground v.1.15,2013-02-13 08:25:00,
2013-02-13 01:31:00,22.2,5.0,22.47,SW,231,6.0,21.0,47,0.00,,,0.00,Wunderground v.1.15,2013-02-13 08:31:00,
2013-02-13 01:33:00,22.4,5.2,22.46,SW,223,6.0,21.0,47,0.00,,,0.00,Wunderground v.1.15,2013-02-13 08:33:00,
2013-02-13 01:37:00,22.5,5.3,22.46,WSW,248,8.0,21.0,47,0.00,,,0.00,Wunderground v.1.15,2013-02-13 08:37:00,
2013-02-13 01:39:00,22.4,5.2,22.46,SW,231,9.0,21.0,47,0.00,,,0.00,Wunderground v.1.15,2013-02-13 08:39:00,
2013-02-13 01:43:00,22.5,5.3,22.45,SSW,209,9.0,21.0,47,0.00,,,0.00,Wunderground v.1.15,2013-02-13 08:43:00,
2013-02-13 01:47:00,22.7,5.9,22.45,WSW,252,9.0,21.0,48,0.00,,,0.00,Wunderground v.1.15,2013-02-13 08:47:00,
2013-02-13 01:53:00,22.7,5.9,22.45,South,174,9.0,9.0,48,0.00,,,0.00,Wunderground v.1.15,2013-02-13 08:53:00,
2013-02-13 01:55:00,22.7,5.9,22.45,WSW,246,9.0,21.0,48,0.00,,,0.00,Wunderground v.1.15,2013-02-13 08:55:00,
2013-02-13 02:01:00,22.8,6.0,22.45,SW,226,9.0,21.0,48,0.00,,,0.00,Wunderground v.1.15,2013-02-13 09:01:00,
2013-02-13 02:03:00,23.0,5.7,22.45,WSW,256,9.0,21.0,47,0.00,,,0.00,Wunderground v.1.15,2013-02-13 09:03:00,
2013-02-13 02:07:00,23.1,5.8,22.44,SW,228,10.0,21.0,47,0.00,,,0.00,Wunderground v.1.15,2013-02-13 09:07:00,
2013-02-13 02:09:00,23.1,5.8,22.44,SSW,194,10.0,21.0,47,0.00,,,0.00,Wunderground v.1.15,2013-02-13 09:09:00,
2013-02-13 02:13:00,23.4,5.6,22.44,West,273,10.0,10.0,46,0.00,,,0.00,Wunderground v.1.15,2013-02-13 09:13:00,
2013-02-13 02:15:00,23.4,5.6,22.44,SW,226,10.0,11.0,46,0.00,,,0.00,Wunderground v.1.15,2013-02-13 09:15:00,
2013-02-13 02:17:00,23.5,5.7,22.44,WSW,252,9.0,21.0,46,0.00,,,0.00,Wunderground v.1.15,2013-02-13 09:17:00,
2013-02-13 02:19:00,23.5,5.7,22.44,SW,226,10.0,24.0,46,0.00,,,0.00,Wunderground v.1.15,2013-02-13 09:19:00,
2013-02-13 02:21:00,23.7,5.9,22.43,WSW,245,10.0,24.0,46,0.00,,,0.00,Wunderground v.1.15,2013-02-13 09:21:00,
2013-02-13 02:23:00,24.0,5.7,22.43,WNW,287,11.0,21.0,45,0.00,,,0.00,Wunderground v.1.15,2013-02-13 09:23:00,
2013-02-13 02:25:00,24.0,5.7,22.43,WSW,245,11.0,21.0,45,0.00,,,0.00,Wunderground v.1.15,2013-02-13 09:25:00,
2013-02-13 02:31:00,24.2,5.9,22.44,South,184,11.0,21.0,45,0.00,,,0.00,Wunderground v.1.15,2013-02-13 09:31:00,
2013-02-13 02:33:00,24.1,5.8,22.44,SSE,164,11.0,21.0,45,0.00,,,0.00,Wunderground v.1.15,2013-02-13 09:33:00,
2013-02-13 02:35:00,24.1,5.8,22.43,WSW,239,10.0,21.0,45,0.00,,,0.00,Wunderground v.1.15,2013-02-13 09:35:00,
2013-02-13 02:39:00,24.1,5.3,22.43,WSW,249,12.0,21.0,44,0.00,,,0.00,Wunderground v.1.15,2013-02-13 09:39:00,
2013-02-13 02:41:00,24.2,5.4,22.43,SSW,197,13.0,21.0,44,0.00,,,0.00,Wunderground v.1.15,2013-02-13 09:41:00,
2013-02-13 02:47:00,24.0,5.2,22.43,WSW,240,13.0,23.0,44,0.00,,,0.00,Wunderground v.1.15,2013-02-13 09:47:00,
2013-02-13 02:49:00,23.8,5.0,22.43,West,270,13.0,23.0,44,0.00,,,0.00,Wunderground v.1.15,2013-02-13 09:49:00,
2013-02-13 02:51:00,23.7,5.4,22.43,SW,236,12.0,23.0,45,0.00,,,0.00,Wunderground v.1.15,2013-02-13 09:51:00,
2013-02-13 02:53:00,23.6,5.3,22.43,WSW,253,11.0,21.0,45,0.00,,,0.00,Wunderground v.1.15,2013-02-13 09:53:00,
2013-02-13 02:55:00,23.6,5.3,22.43,SSW,202,13.0,21.0,45,0.00,,,0.00,Wunderground v.1.15,2013-02-13 09:55:00,
2013-02-13 02:57:00,23.6,5.3,22.43,WSW,256,12.0,21.0,45,0.00,,,0.00,Wunderground v.1.15,2013-02-13 09:57:00,
2013-02-13 02:59:00,23.5,5.2,22.42,WSW,253,12.0,26.0,45,0.00,,,0.00,Wunderground v.1.15,2013-02-13 09:59:00,
2013-02-13 03:01:00,23.5,5.2,22.42,WSW,246,13.0,26.0,45,0.00,,,0.00,Wunderground v.1.15,2013-02-13 10:01:00,
2013-02-13 03:03:00,23.6,5.3,22.43,WSW,245,13.0,13.0,45,0.00,,,0.00,Wunderground v.1.15,2013-02-13 10:03:00,
2013-02-13 03:07:00,23.7,5.4,22.42,SW,226,13.0,21.0,45,0.00,,,0.00,Wunderground v.1.15,2013-02-13 10:07:00,
2013-02-13 03:11:00,23.8,5.5,22.43,SW,231,12.0,21.0,45,0.00,,,0.00,Wunderground v.1.15,2013-02-13 10:11:00,
2013-02-13 03:13:00,23.9,5.6,22.43,WSW,253,13.0,13.0,45,0.00,,,0.00,Wunderground v.1.15,2013-02-13 10:13:00,
2013-02-13 03:15:00,23.8,5.5,22.43,NW,313,13.0,21.0,45,0.00,,,0.00,Wunderground v.1.15,2013-02-13 10:15:00,
2013-02-13 03:17:00,23.9,5.6,22.42,SE,135,11.0,21.0,45,0.00,,,0.00,Wunderground v.1.15,2013-02-13 10:17:00,
2013-02-13 03:21:00,24.0,5.7,22.42,NE,43,10.0,21.0,45,0.00,,,0.00,Wunderground v.1.15,2013-02-13 10:21:00,
2013-02-13 03:23:00,24.0,5.7,22.43,South,184,10.0,10.0,45,0.00,,,0.00,Wunderground v.1.15,2013-02-13 10:23:00,
2013-02-13 03:29:00,24.2,5.4,22.42,West,280,12.0,21.0,44,0.00,,,0.00,Wunderground v.1.15,2013-02-13 10:29:00,
2013-02-13 03:31:00,24.2,5.4,22.42,West,270,11.0,21.0,44,0.00,,,0.00,Wunderground v.1.15,2013-02-13 10:31:00,
2013-02-13 03:35:00,24.3,5.5,22.42,SSW,212,11.0,21.0,44,0.00,,,0.00,Wunderground v.1.15,2013-02-13 10:35:00,
2013-02-13 03:37:00,24.4,5.6,22.43,West,269,11.0,21.0,44,0.00,,,0.00,Wunderground v.1.15,2013-02-13 10:37:00,
2013-02-13 03:43:00,24.5,5.7,22.43,SSE,150,12.0,12.0,44,0.00,,,0.00,Wunderground v.1.15,2013-02-13 10:43:00,
2013-02-13 03:45:00,24.4,5.6,22.43,West,259,12.0,21.0,44,0.00,,,0.00,Wunderground v.1.15,2013-02-13 10:45:00,
2013-02-13 03:47:00,24.4,5.6,22.43,West,259,12.0,21.0,44,0.00,,,0.00,Wunderground v.1.15,2013-02-13 10:47:00,
2013-02-13 03:51:00,24.4,5.6,22.43,West,262,11.0,21.0,44,0.00,,,0.00,Wunderground v.1.15,2013-02-13 10:51:00,
2013-02-13 03:53:00,24.5,5.7,22.43,West,259,11.0,21.0,44,0.00,,,0.00,Wunderground v.1.15,2013-02-13 10:53:00,
2013-02-13 03:57:00,24.3,6.0,22.42,SW,236,11.0,21.0,45,0.00,,,0.00,Wunderground v.1.15,2013-02-13 10:57:00,
2013-02-13 03:59:00,24.2,5.9,22.43,WSW,250,11.0,21.0,45,0.00,,,0.00,Wunderground v.1.15,2013-02-13 10:59:00,
2013-02-13 04:03:00,24.2,5.9,22.43,SW,221,12.0,21.0,45,0.00,,,0.00,Wunderground v.1.15,2013-02-13 11:03:00,
2013-02-13 04:05:00,24.2,5.9,22.42,SW,214,12.0,21.0,45,0.00,,,0.00,Wunderground v.1.15,2013-02-13 11:05:00,
2013-02-13 04:09:00,24.2,5.9,22.43,West,275,13.0,21.0,45,0.00,,,0.00,Wunderground v.1.15,2013-02-13 11:09:00,
2013-02-13 04:11:00,24.2,5.9,22.42,WSW,243,12.0,21.0,45,0.00,,,0.00,Wunderground v.1.15,2013-02-13 11:11:00,
2013-02-13 04:15:00,24.4,6.1,22.43,WSW,240,11.0,21.0,45,0.00,,,0.00,Wunderground v.1.15,2013-02-13 11:15:00,
2013-02-13 04:17:00,24.4,6.1,22.43,SW,217,11.0,21.0,45,0.00,,,0.00,Wunderground v.1.15,2013-02-13 11:17:00,
2013-02-13 04:19:00,24.5,5.7,22.43,WNW,297,10.0,21.0,44,0.00,,,0.00,Wunderground v.1.15,2013-02-13 11:19:00,
2013-02-13 04:21:00,24.5,5.7,22.43,NNE,22,10.0,21.0,44,0.00,,,0.00,Wunderground v.1.15,2013-02-13 11:21:00,
2013-02-13 04:25:00,24.6,5.8,22.42,NNW,336,11.0,21.0,44,0.00,,,0.00,Wunderground v.1.15,2013-02-13 11:25:00,
2013-02-13 04:27:00,24.6,5.8,22.42,SW,236,10.0,21.0,44,0.00,,,0.00,Wunderground v.1.15,2013-02-13 11:27:00,
2013-02-13 04:31:00,24.8,5.9,22.43,NNW,336,12.0,21.0,44,0.00,,,0.00,Wunderground v.1.15,2013-02-13 11:31:00,
2013-02-13 04:35:00,24.9,6.0,22.43,West,263,13.0,21.0,44,0.00,,,0.00,Wunderground v.1.15,2013-02-13 11:35:00,
2013-02-13 04:37:00,25.0,5.6,22.42,SW,224,14.0,21.0,43,0.00,,,0.00,Wunderground v.1.15,2013-02-13 11:37:00,
2013-02-13 04:41:00,25.0,5.6,22.42,West,277,15.0,25.0,43,0.00,,,0.00,Wunderground v.1.15,2013-02-13 11:41:00,
2013-02-13 04:43:00,25.0,5.6,22.43,WSW,240,14.0,21.0,43,0.00,,,0.00,Wunderground v.1.15,2013-02-13 11:43:00,
2013-02-13 04:47:00,24.9,5.5,22.43,WNW,284,14.0,21.0,43,0.00,,,0.00,Wunderground v.1.15,2013-02-13 11:47:00,
2013-02-13 04:49:00,25.1,5.7,22.43,West,259,15.0,21.0,43,0.00,,,0.00,Wunderground v.1.15,2013-02-13 11:49:00,
2013-02-13 04:51:00,25.3,5.4,22.44,SW,226,12.0,21.0,42,0.00,,,0.00,Wunderground v.1.15,2013-02-13 11:51:00,
2013-02-13 04:53:00,25.3,5.4,22.44,West,264,12.0,21.0,42,0.00,,,0.00,Wunderground v.1.15,2013-02-13 11:53:00,
2013-02-13 04:57:00,25.2,5.8,22.44,SSW,205,12.0,26.0,43,0.00,,,0.00,Wunderground v.1.15,2013-02-13 11:57:00,
2013-02-13 04:59:00,25.2,5.8,22.44,WSW,249,12.0,26.0,43,0.00,,,0.00,Wunderground v.1.15,2013-02-13 11:59:00,
2013-02-13 05:03:00,25.1,5.7,22.44,WSW,256,13.0,21.0,43,0.00,,,0.00,Wunderground v.1.15,2013-02-13 12:03:00,
2013-02-13 05:05:00,25.1,5.7,22.44,SW,236,13.0,21.0,43,0.00,,,0.00,Wunderground v.1.15,2013-02-13 12:05:00,
2013-02-13 05:11:00,25.0,5.6,22.43,SW,214,11.0,21.0,43,0.00,,,0.00,Wunderground v.1.15,2013-02-13 12:11:00,
2013-02-13 05:15:00,25.0,5.6,22.43,SW,233,13.0,21.0,43,0.00,,,0.00,Wunderground v.1.15,2013-02-13 12:15:00,
2013-02-13 05:19:00,25.0,5.6,22.43,SSW,212,13.0,21.0,43,0.00,,,0.00,Wunderground v.1.15,2013-02-13 12:19:00,
2013-02-13 05:23:00,24.7,4.8,22.43,SW,226,11.0,11.0,42,0.00,,,0.00,Wunderground v.1.15,2013-02-13 12:23:00,
2013-02-13 05:25:00,24.7,4.8,22.43,SW,236,10.0,21.0,42,0.00,,,0.00,Wunderground v.1.15,2013-02-13 12:25:00,
2013-02-13 05:27:00,24.7,4.8,22.43,SW,216,9.0,21.0,42,0.00,,,0.00,Wunderground v.1.15,2013-02-13 12:27:00,
2013-02-13 05:29:00,24.6,4.7,22.43,SSW,198,8.0,21.0,42,0.00,,,0.00,Wunderground v.1.15,2013-02-13 12:29:00,
2013-02-13 05:31:00,24.7,4.8,22.43,SW,231,8.0,21.0,42,0.00,,,0.00,Wunderground v.1.15,2013-02-13 12:31:00,
2013-02-13 05:33:00,24.7,4.8,22.43,SW,226,8.0,8.0,42,0.00,,,0.00,Wunderground v.1.15,2013-02-13 12:33:00,
2013-02-13 05:39:00,24.6,4.2,22.42,NNW,344,9.0,21.0,41,0.00,,,0.00,Wunderground v.1.15,2013-02-13 12:39:00,
2013-02-13 05:45:00,24.6,4.2,22.42,SSW,204,8.0,21.0,41,0.00,,,0.00,Wunderground v.1.15,2013-02-13 12:45:00,
2013-02-13 05:47:00,24.6,4.2,22.42,NW,306,7.0,21.0,41,0.00,,,0.00,Wunderground v.1.15,2013-02-13 12:47:00,
2013-02-13 05:51:00,24.6,4.2,22.42,North,359,6.0,21.0,41,0.00,,,0.00,Wunderground v.1.15,2013-02-13 12:51:00,
2013-02-13 05:53:00,24.7,4.3,22.42,SW,224,6.0,21.0,41,0.00,,,0.00,Wunderground v.1.15,2013-02-13 12:53:00,
2013-02-13 05:57:00,24.7,4.3,22.42,WNW,283,6.0,21.0,41,0.00,,,0.00,Wunderground v.1.15,2013-02-13 12:57:00,
2013-02-13 05:59:00,24.7,4.3,22.42,WNW,288,6.0,21.0,41,0.00,,,0.00,Wunderground v.1.15,2013-02-13 12:59:00,
2013-02-13 06:03:00,24.7,4.3,22.42,East,98,7.0,21.0,41,0.00,,,0.00,Wunderground v.1.15,2013-02-13 13:03:00,
2013-02-13 06:05:00,24.8,4.4,22.42,SW,217,6.0,21.0,41,0.00,,,0.00,Wunderground v.1.15,2013-02-13 13:05:00,
2013-02-13 06:09:00,25.0,4.6,22.42,NNW,327,7.0,21.0,41,0.00,,,0.00,Wunderground v.1.15,2013-02-13 13:09:00,
2013-02-13 06:11:00,25.0,4.6,22.42,WNW,302,7.0,21.0,41,0.00,,,0.00,Wunderground v.1.15,2013-02-13 13:11:00,
2013-02-13 06:17:00,24.8,4.4,22.42,WSW,256,7.0,21.0,41,0.00,,,0.00,Wunderground v.1.15,2013-02-13 13:17:00,
2013-02-13 06:19:00,24.8,4.4,22.42,East,81,7.0,21.0,41,0.00,,,0.00,Wunderground v.1.15,2013-02-13 13:19:00,
2013-02-13 06:23:00,24.9,4.5,22.42,West,270,6.0,21.0,41,0.00,,,0.00,Wunderground v.1.15,2013-02-13 13:23:00,
2013-02-13 06:25:00,25.0,5.1,22.42,SSW,212,6.0,21.0,42,0.00,,,0.00,Wunderground v.1.15,2013-02-13 13:25:00,
2013-02-13 06:27:00,24.8,4.9,22.42,NW,308,6.0,21.0,42,0.00,,,0.00,Wunderground v.1.15,2013-02-13 13:27:00,
2013-02-13 06:31:00,24.7,4.8,22.42,WNW,299,6.0,21.0,42,0.00,,,0.00,Wunderground v.1.15,2013-02-13 13:31:00,
2013-02-13 06:37:00,24.6,4.7,22.43,NE,43,5.0,21.0,42,0.00,,,0.00,Wunderground v.1.15,2013-02-13 13:37:00,
2013-02-13 06:39:00,24.7,5.3,22.42,WSW,248,5.0,21.0,43,0.00,,,0.00,Wunderground v.1.15,2013-02-13 13:39:00,
2013-02-13 06:45:00,24.9,5.5,22.43,NW,305,7.0,7.0,43,0.00,,,0.00,Wunderground v.1.15,2013-02-13 13:45:00,
2013-02-13 06:47:00,24.9,5.0,22.43,SSW,200,7.0,21.0,42,0.00,,,0.00,Wunderground v.1.15,2013-02-13 13:47:00,
2013-02-13 06:51:00,24.9,5.0,22.43,West,278,7.0,21.0,42,0.00,,,0.00,Wunderground v.1.15,2013-02-13 13:51:00,
2013-02-13 06:53:00,24.9,5.5,22.43,WNW,298,6.0,6.0,43,0.00,,,0.00,Wunderground v.1.15,2013-02-13 13:53:00,
2013-02-13 06:55:00,25.0,5.1,22.43,West,271,6.0,21.0,42,0.00,,,0.00,Wunderground v.1.15,2013-02-13 13:55:00,
2013-02-13 06:59:00,24.9,5.5,22.43,SSW,201,7.0,21.0,43,0.00,,,0.00,Wunderground v.1.15,2013-02-13 13:59:00,
2013-02-13 07:01:00,24.8,5.4,22.43,SSW,195,7.0,21.0,43,0.00,,,0.00,Wunderground v.1.15,2013-02-13 14:01:00,
2013-02-13 07:05:00,25.1,5.7,22.43,SW,214,7.0,21.0,43,0.00,,,0.00,Wunderground v.1.15,2013-02-13 14:05:00,
2013-02-13 07:07:00,25.0,5.6,22.43,West,269,6.0,21.0,43,0.00,,,0.00,Wunderground v.1.15,2013-02-13 14:07:00,
2013-02-13 07:11:00,25.0,5.6,22.44,WSW,243,7.0,21.0,43,0.00,,,0.00,Wunderground v.1.15,2013-02-13 14:11:00,
2013-02-13 07:13:00,25.0,5.6,22.44,North,11,7.0,7.0,43,0.00,,,0.00,Wunderground v.1.15,2013-02-13 14:13:00,
2013-02-13 07:15:00,25.0,5.6,22.44,WSW,238,7.0,13.0,43,0.00,,,0.00,Wunderground v.1.15,2013-02-13 14:15:00,
2013-02-13 07:21:00,25.0,5.6,22.44,NNW,336,8.0,21.0,43,0.00,,,0.00,Wunderground v.1.15,2013-02-13 14:21:00,
2013-02-13 07:23:00,24.8,5.9,22.44,WSW,256,7.0,7.0,44,0.00,,,0.00,Wunderground v.1.15,2013-02-13 14:23:00,
2013-02-13 07:29:00,24.7,5.8,22.45,SW,226,7.0,21.0,44,0.00,,,0.00,Wunderground v.1.15,2013-02-13 14:29:00,
2013-02-13 07:31:00,24.9,6.0,22.45,SSW,194,6.0,21.0,44,0.00,,,0.00,Wunderground v.1.15,2013-02-13 14:31:00,
2013-02-13 07:33:00,24.8,5.9,22.45,West,276,6.0,6.0,44,0.00,,,0.00,Wunderground v.1.15,2013-02-13 14:33:00,
2013-02-13 07:39:00,24.8,5.9,22.46,SSW,204,5.0,21.0,44,0.00,,,0.00,Wunderground v.1.15,2013-02-13 14:39:00,
2013-02-13 07:43:00,24.8,5.9,22.46,WNW,300,5.0,21.0,44,0.00,,,0.00,Wunderground v.1.15,2013-02-13 14:43:00,
2013-02-13 07:45:00,24.9,6.0,22.46,WSW,240,6.0,21.0,44,0.00,,,0.00,Wunderground v.1.15,2013-02-13 14:45:00,
2013-02-13 07:51:00,24.8,5.9,22.46,West,261,6.0,21.0,44,0.00,,,0.00,Wunderground v.1.15,2013-02-13 14:51:00,
2013-02-13 07:57:00,24.6,6.3,22.45,West,264,8.0,21.0,45,0.00,,,0.00,Wunderground v.1.15,2013-02-13 14:57:00,
2013-02-13 08:01:00,24.7,5.8,22.45,WSW,240,8.0,21.0,44,0.00,,,0.00,Wunderground v.1.15,2013-02-13 15:01:00,
2013-02-13 08:07:00,25.1,5.7,22.44,NW,318,8.0,21.0,43,0.00,,,0.00,Wunderground v.1.15,2013-02-13 15:07:00,
2013-02-13 08:11:00,25.3,5.9,22.44,West,271,7.0,21.0,43,0.00,,,0.00,Wunderground v.1.15,2013-02-13 15:11:00,
2013-02-13 08:15:00,25.5,5.6,22.44,NNE,12,7.0,21.0,42,0.00,,,0.00,Wunderground v.1.15,2013-02-13 15:15:00,
2013-02-13 08:19:00,25.8,5.3,22.45,SSW,208,6.0,21.0,41,0.00,,,0.00,Wunderground v.1.15,2013-02-13 15:19:00,
2013-02-13 08:23:00,26.1,6.1,22.45,SW,224,7.0,7.0,42,0.00,,,0.00,Wunderground v.1.15,2013-02-13 15:23:00,
2013-02-13 08:27:00,26.2,5.7,22.45,East,96,9.0,22.0,41,0.00,,,0.00,Wunderground v.1.15,2013-02-13 15:27:00,
2013-02-13 08:29:00,26.2,5.7,22.44,SW,215,10.0,24.0,41,0.00,,,0.00,Wunderground v.1.15,2013-02-13 15:29:00,
2013-02-13 08:31:00,26.2,6.2,22.44,SW,218,11.0,24.0,42,0.00,,,0.00,Wunderground v.1.15,2013-02-13 15:31:00,
2013-02-13 08:35:00,25.8,5.8,22.45,WSW,248,12.0,21.0,42,0.00,,,0.00,Wunderground v.1.15,2013-02-13 15:35:00,
2013-02-13 08:37:00,25.5,6.1,22.45,SSW,204,12.0,21.0,43,0.00,,,0.00,Wunderground v.1.15,2013-02-13 15:37:00,
2013-02-13 08:43:00,25.3,5.9,22.45,West,268,10.0,10.0,43,0.00,,,0.00,Wunderground v.1.15,2013-02-13 15:43:00,
2013-02-13 08:47:00,25.0,6.1,22.45,West,281,9.0,21.0,44,0.00,,,0.00,Wunderground v.1.15,2013-02-13 15:47:00,
2013-02-13 08:49:00,25.0,6.1,22.45,NNW,348,9.0,21.0,44,0.00,,,0.00,Wunderground v.1.15,2013-02-13 15:49:00,
2013-02-13 08:51:00,24.9,6.0,22.45,West,265,9.0,21.0,44,0.00,,,0.00,Wunderground v.1.15,2013-02-13 15:51:00,
2013-02-13 08:53:00,24.8,6.4,22.45,SW,231,10.0,10.0,45,0.00,,,0.00,Wunderground v.1.15,2013-02-13 15:53:00,
2013-02-13 08:55:00,24.7,6.3,22.45,SSW,211,10.0,21.0,45,0.00,,,0.00,Wunderground v.1.15,2013-02-13 15:55:00,
2013-02-13 08:57:00,24.7,6.3,22.45,West,263,10.0,21.0,45,0.00,,,0.00,Wunderground v.1.15,2013-02-13 15:57:00,
2013-02-13 08:59:00,24.5,6.6,22.45,SW,231,10.0,21.0,46,0.00,,,0.00,Wunderground v.1.15,2013-02-13 15:59:00,
2013-02-13 09:01:00,24.5,6.6,22.45,West,262,11.0,21.0,46,0.00,,,0.00,Wunderground v.1.15,2013-02-13 16:01:00,
2013-02-13 09:05:00,24.5,6.2,22.45,SW,225,12.0,21.0,45,0.00,,,0.00,Wunderground v.1.15,2013-02-13 16:05:00,
2013-02-13 09:07:00,24.7,6.3,22.44,South,188,11.0,21.0,45,0.00,,,0.00,Wunderground v.1.15,2013-02-13 16:07:00,
2013-02-13 09:11:00,24.9,6.0,22.44,WSW,240,10.0,21.0,44,0.00,,,0.00,Wunderground v.1.15,2013-02-13 16:11:00,
2013-02-13 09:13:00,25.0,6.1,22.44,WSW,245,8.0,21.0,44,0.00,,,0.00,Wunderground v.1.15,2013-02-13 16:13:00,
2013-02-13 09:17:00,24.9,6.0,22.45,WNW,283,10.0,21.0,44,0.00,,,0.00,Wunderground v.1.15,2013-02-13 16:17:00,
2013-02-13 09:21:00,25.0,6.1,22.45,SSE,166,11.0,25.0,44,0.00,,,0.00,Wunderground v.1.15,2013-02-13 16:21:00,
2013-02-13 09:23:00,25.0,6.6,22.45,WSW,256,11.0,11.0,45,0.00,,,0.00,Wunderground v.1.15,2013-02-13 16:23:00,
2013-02-13 09:27:00,25.2,6.3,22.45,SW,225,10.0,21.0,44,0.00,,,0.00,Wunderground v.1.15,2013-02-13 16:27:00,
2013-02-13 09:29:00,25.3,6.4,22.45,SW,218,10.0,21.0,44,0.00,,,0.00,Wunderground v.1.15,2013-02-13 16:29:00,
2013-02-13 09:33:00,25.6,5.6,22.45,West,270,10.0,21.0,42,0.00,,,0.00,Wunderground v.1.15,2013-02-13 16:33:00,
2013-02-13 09:35:00,25.7,6.3,22.44,South,181,11.0,21.0,43,0.00,,,0.00,Wunderground v.1.15,2013-02-13 16:35:00,
2013-02-13 09:37:00,25.9,6.4,22.44,West,263,11.0,21.0,43,0.00,,,0.00,Wunderground v.1.15,2013-02-13 16:37:00,
2013-02-13 09:41:00,26.4,5.8,22.45,South,184,12.0,21.0,41,0.00,,,0.00,Wunderground v.1.15,2013-02-13 16:41:00,
2013-02-13 09:43:00,26.5,5.9,22.44,West,263,12.0,12.0,41,0.00,,,0.00,Wunderground v.1.15,2013-02-13 16:43:00,
2013-02-13 09:47:00,26.5,5.9,22.45,West,269,13.0,21.0,41,0.00,,,0.00,Wunderground v.1.15,2013-02-13 16:47:00,
2013-02-13 09:49:00,26.4,5.8,22.45,WNW,300,13.0,21.0,41,0.00,,,0.00,Wunderground v.1.15,2013-02-13 16:49:00,
2013-02-13 09:53:00,26.2,5.7,22.45,WSW,257,13.0,13.0,41,0.00,,,0.00,Wunderground v.1.15,2013-02-13 16:53:00,
2013-02-13 09:55:00,26.3,6.3,22.45,WNW,295,13.0,21.0,42,0.00,,,0.00,Wunderground v.1.15,2013-02-13 16:55:00,
2013-02-13 09:59:00,26.7,6.6,22.45,WNW,287,13.0,21.0,42,0.00,,,0.00,Wunderground v.1.15,2013-02-13 16:59:00,
2013-02-13 10:05:00,26.7,6.1,22.45,WSW,240,11.0,14.0,41,0.00,,,0.00,Wunderground v.1.15,2013-02-13 17:05:00,
2013-02-13 10:07:00,26.7,6.1,22.45,SW,236,11.0,21.0,41,0.00,,,0.00,Wunderground v.1.15,2013-02-13 17:07:00,
2013-02-13 10:13:00,26.7,6.1,22.45,West,259,11.0,21.0,41,0.00,,,0.00,Wunderground v.1.15,2013-02-13 17:13:00,
2013-02-13 10:17:00,26.9,6.3,22.45,WSW,249,11.0,21.0,41,0.00,,,0.00,Wunderground v.1.15,2013-02-13 17:17:00,
2013-02-13 10:19:00,27.0,6.4,22.45,WSW,246,11.0,21.0,41,0.00,,,0.00,Wunderground v.1.15,2013-02-13 17:19:00,
2013-02-13 10:21:00,27.2,6.6,22.44,WSW,238,10.0,21.0,41,0.00,,,0.00,Wunderground v.1.15,2013-02-13 17:21:00,
2013-02-13 10:25:00,27.7,6.5,22.44,WSW,249,10.0,21.0,40,0.00,,,0.00,Wunderground v.1.15,2013-02-13 17:25:00,
2013-02-13 10:27:00,27.9,6.7,22.44,SW,224,11.0,21.0,40,0.00,,,0.00,Wunderground v.1.15,2013-02-13 17:27:00,
2013-02-13 10:33:00,28.6,6.7,22.44,WSW,243,13.0,21.0,39,0.00,,,0.00,Wunderground v.1.15,2013-02-13 17:33:00,
2013-02-13 10:37:00,28.8,6.3,22.44,WSW,238,11.0,21.0,38,0.00,,,0.00,Wunderground v.1.15,2013-02-13 17:37:00,
2013-02-13 10:43:00,29.0,6.5,22.45,WSW,253,12.0,12.0,38,0.00,,,0.00,Wunderground v.1.15,2013-02-13 17:43:00,
2013-02-13 10:45:00,29.1,6.6,22.45,WSW,252,13.0,13.0,38,0.00,,,0.00,Wunderground v.1.15,2013-02-13 17:45:00,
2013-02-13 10:49:00,28.7,6.3,22.45,West,276,13.0,21.0,38,0.00,,,0.00,Wunderground v.1.15,2013-02-13 17:49:00,
2013-02-13 10:51:00,28.2,6.4,22.46,WSW,239,12.0,21.0,39,0.00,,,0.00,Wunderground v.1.15,2013-02-13 17:51:00,
2013-02-13 10:55:00,28.2,5.8,22.46,SW,231,11.0,21.0,38,0.00,,,0.00,Wunderground v.1.15,2013-02-13 17:55:00,
2013-02-13 10:57:00,28.2,6.4,22.46,South,187,10.0,21.0,39,0.00,,,0.00,Wunderground v.1.15,2013-02-13 17:57:00,
2013-02-13 10:59:00,28.2,5.8,22.46,South,174,10.0,21.0,38,0.00,,,0.00,Wunderground v.1.15,2013-02-13 17:59:00,
2013-02-13 11:05:00,28.2,6.4,22.47,WNW,291,8.0,21.0,39,0.00,,,0.00,Wunderground v.1.15,2013-02-13 18:05:00,
2013-02-13 11:07:00,28.2,6.4,22.47,West,276,9.0,21.0,39,0.00,,,0.00,Wunderground v.1.15,2013-02-13 18:07:00,
2013-02-13 11:09:00,28.1,6.3,22.47,South,177,9.0,21.0,39,0.00,,,0.00,Wunderground v.1.15,2013-02-13 18:09:00,
2013-02-13 11:13:00,28.0,6.2,22.47,West,267,8.0,21.0,39,0.00,,,0.00,Wunderground v.1.15,2013-02-13 18:13:00,
2013-02-13 11:15:00,27.8,6.6,22.47,NW,318,8.0,21.0,40,0.00,,,0.00,Wunderground v.1.15,2013-02-13 18:15:00,
2013-02-13 11:17:00,27.7,7.0,22.47,NNW,344,8.0,21.0,41,0.00,,,0.00,Wunderground v.1.15,2013-02-13 18:17:00,
2013-02-13 11:23:00,27.1,7.0,22.48,NW,304,8.0,8.0,42,0.00,,,0.00,Wunderground v.1.15,2013-02-13 18:23:00,
2013-02-13 11:25:00,27.1,7.0,22.48,West,278,8.0,21.0,42,0.00,,,0.00,Wunderground v.1.15,2013-02-13 18:25:00,
2013-02-13 11:29:00,27.1,7.5,22.48,NNW,333,8.0,21.0,43,0.00,,,0.00,Wunderground v.1.15,2013-02-13 18:29:00,
2013-02-13 11:33:00,27.0,7.4,22.48,NW,309,8.0,8.0,43,0.00,,,0.00,Wunderground v.1.15,2013-02-13 18:33:00,
2013-02-13 11:37:00,27.0,8.0,22.48,SSW,201,8.0,21.0,44,0.00,,,0.00,Wunderground v.1.15,2013-02-13 18:37:00,
2013-02-13 11:41:00,27.0,8.0,22.49,SSW,204,9.0,21.0,44,0.00,,,0.00,Wunderground v.1.15,2013-02-13 18:41:00,
2013-02-13 11:45:00,27.3,8.2,22.49,ESE,118,8.0,21.0,44,0.00,,,0.00,Wunderground v.1.15,2013-02-13 18:45:00,
2013-02-13 11:47:00,27.3,8.2,22.49,SW,226,8.0,21.0,44,0.00,,,0.00,Wunderground v.1.15,2013-02-13 18:47:00,
2013-02-13 11:49:00,27.3,8.2,22.49,NNW,328,8.0,21.0,44,0.00,,,0.00,Wunderground v.1.15,2013-02-13 18:49:00,
2013-02-13 11:51:00,27.4,8.8,22.49,WSW,253,7.0,21.0,45,0.00,,,0.00,Wunderground v.1.15,2013-02-13 18:51:00,
2013-02-13 11:53:00,27.4,8.8,22.49,SW,217,7.0,21.0,45,0.00,,,0.00,Wunderground v.1.15,2013-02-13 18:53:00,
2013-02-13 11:57:00,27.6,9.0,22.48,WSW,248,9.0,21.0,45,0.00,,,0.00,Wunderground v.1.15,2013-02-13 18:57:00,
2013-02-13 12:01:00,28.4,9.2,22.48,WSW,238,8.0,21.0,44,0.00,,,0.00,Wunderground v.1.15,2013-02-13 19:01:00,
2013-02-13 12:05:00,28.9,9.2,22.48,SW,222,8.0,21.0,43,0.00,,,0.00,Wunderground v.1.15,2013-02-13 19:05:00,
2013-02-13 12:11:00,30.1,9.7,22.48,SW,217,10.0,21.0,42,0.00,,,0.00,Wunderground v.1.15,2013-02-13 19:11:00,
2013-02-13 12:13:00,30.4,9.5,22.48,WSW,253,10.0,22.0,41,0.00,,,0.00,Wunderground v.1.15,2013-02-13 19:13:00,
2013-02-13 12:15:00,30.5,9.6,22.47,West,271,11.0,22.0,41,0.00,,,0.00,Wunderground v.1.15,2013-02-13 19:15:00,
2013-02-13 12:19:00,30.8,10.4,22.48,West,263,10.0,22.0,42,0.00,,,0.00,Wunderground v.1.15,2013-02-13 19:19:00,
2013-02-13 12:21:00,31.0,10.0,22.48,WSW,240,10.0,22.0,41,0.00,,,0.00,Wunderground v.1.15,2013-02-13 19:21:00,
2013-02-13 12:27:00,31.3,9.7,22.47,WSW,243,10.0,21.0,40,0.00,,,0.00,Wunderground v.1.15,2013-02-13 19:27:00,
2013-02-13 12:29:00,31.3,9.7,22.47,WSW,245,10.0,21.0,40,0.00,,,0.00,Wunderground v.1.15,2013-02-13 19:29:00,
2013-02-13 12:31:00,31.4,9.8,22.48,SSW,197,10.0,21.0,40,0.00,,,0.00,Wunderground v.1.15,2013-02-13 19:31:00,
2013-02-13 12:33:00,31.6,10.6,22.48,SW,232,9.0,9.0,41,0.00,,,0.00,Wunderground v.1.15,2013-02-13 19:33:00,
2013-02-13 12:37:00,31.2,9.6,22.47,WSW,242,9.0,21.0,40,0.00,,,0.00,Wunderground v.1.15,2013-02-13 19:37:00,
2013-02-13 12:39:00,31.1,9.6,22.48,SW,229,9.0,21.0,40,0.00,,,0.00,Wunderground v.1.15,2013-02-13 19:39:00,
2013-02-13 12:45:00,31.0,10.0,22.48,SW,231,9.0,21.0,41,0.00,,,0.00,Wunderground v.1.15,2013-02-13 19:45:00,
2013-02-13 12:51:00,31.2,10.2,22.48,West,264,7.0,21.0,41,0.00,,,0.00,Wunderground v.1.15,2013-02-13 19:51:00,
2013-02-13 12:57:00,31.8,9.6,22.47,South,191,6.0,21.0,39,0.00,,,0.00,Wunderground v.1.15,2013-02-13 19:57:00,
2013-02-13 12:59:00,31.9,9.7,22.48,West,268,5.0,21.0,39,0.00,,,0.00,Wunderground v.1.15,2013-02-13 19:59:00,
2013-02-13 13:01:00,32.2,10.0,22.48,SW,229,5.0,21.0,39,0.00,,,0.00,Wunderground v.1.15,2013-02-13 20:01:00,
2013-02-13 13:07:00,32.9,10.0,22.47,WNW,295,4.0,21.0,38,0.00,,,0.00,Wunderground v.1.15,2013-02-13 20:07:00,
2013-02-13 13:09:00,33.0,10.7,22.47,South,182,4.0,21.0,39,0.00,,,0.00,Wunderground v.1.15,2013-02-13 20:09:00,
2013-02-13 13:13:00,33.5,11.2,22.47,NNE,15,4.0,4.0,39,0.00,,,0.00,Wunderground v.1.15,2013-02-13 20:13:00,
2013-02-13 13:15:00,33.3,10.4,22.47,West,260,5.0,15.0,38,0.00,,,0.00,Wunderground v.1.15,2013-02-13 20:15:00,
2013-02-13 13:19:00,32.7,10.4,22.47,SSW,207,6.0,21.0,39,0.00,,,0.00,Wunderground v.1.15,2013-02-13 20:19:00,
2013-02-13 13:23:00,32.0,9.8,22.47,WSW,249,8.0,21.0,39,0.00,,,0.00,Wunderground v.1.15,2013-02-13 20:23:00,
2013-02-13 13:27:00,31.5,10.5,22.47,ESE,106,8.0,21.0,41,0.00,,,0.00,Wunderground v.1.15,2013-02-13 20:27:00,
2013-02-13 13:29:00,31.6,10.6,22.47,WSW,256,8.0,21.0,41,0.00,,,0.00,Wunderground v.1.15,2013-02-13 20:29:00,
2013-02-13 13:33:00,30.8,10.4,22.47,WSW,253,9.0,9.0,42,0.00,,,0.00,Wunderground v.1.15,2013-02-13 20:33:00,
2013-02-13 13:35:00,30.8,10.9,22.47,SW,225,9.0,13.0,43,0.00,,,0.00,Wunderground v.1.15,2013-02-13 20:35:00,
2013-02-13 13:39:00,30.8,10.9,22.47,WSW,239,9.0,21.0,43,0.00,,,0.00,Wunderground v.1.15,2013-02-13 20:39:00,
2013-02-13 13:41:00,30.7,10.8,22.47,SW,225,9.0,21.0,43,0.00,,,0.00,Wunderground v.1.15,2013-02-13 20:41:00,
2013-02-13 13:45:00,30.5,11.1,22.47,WSW,250,9.0,14.0,44,0.00,,,0.00,Wunderground v.1.15,2013-02-13 20:45:00,
2013-02-13 13:49:00,30.6,11.2,22.47,SW,225,9.0,21.0,44,0.00,,,0.00,Wunderground v.1.15,2013-02-13 20:49:00,
2013-02-13 13:53:00,30.7,11.3,22.47,SSW,198,9.0,9.0,44,0.00,,,0.00,Wunderground v.1.15,2013-02-13 20:53:00,
2013-02-13 13:55:00,30.8,11.4,22.47,West,264,8.0,21.0,44,0.00,,,0.00,Wunderground v.1.15,2013-02-13 20:55:00,
2013-02-13 13:59:00,31.0,11.6,22.46,WSW,256,8.0,21.0,44,0.00,,,0.00,Wunderground v.1.15,2013-02-13 20:59:00,
2013-02-13 14:01:00,31.1,11.7,22.46,SW,214,8.0,21.0,44,0.00,,,0.00,Wunderground v.1.15,2013-02-13 21:01:00,
2013-02-13 14:05:00,31.4,11.5,22.46,SW,218,8.0,10.0,43,0.00,,,0.00,Wunderground v.1.15,2013-02-13 21:05:00,
2013-02-13 14:07:00,31.7,11.7,22.46,West,260,7.0,21.0,43,0.00,,,0.00,Wunderground v.1.15,2013-02-13 21:07:00,
2013-02-13 14:13:00,32.4,11.8,22.46,SSW,203,6.0,6.0,42,0.00,,,0.00,Wunderground v.1.15,2013-02-13 21:13:00,
2013-02-13 14:15:00,32.5,11.9,22.46,WSW,238,5.0,8.0,42,0.00,,,0.00,Wunderground v.1.15,2013-02-13 21:15:00,
2013-02-13 14:19:00,32.5,11.4,22.45,WSW,249,6.0,21.0,41,0.00,,,0.00,Wunderground v.1.15,2013-02-13 21:19:00,
2013-02-13 14:21:00,32.1,11.6,22.45,WSW,240,7.0,21.0,42,0.00,,,0.00,Wunderground v.1.15,2013-02-13 21:21:00,
2013-02-13 14:27:00,31.8,12.3,22.45,SW,235,7.0,21.0,44,0.00,,,0.00,Wunderground v.1.15,2013-02-13 21:27:00,
2013-02-13 14:29:00,32.0,12.0,22.45,SW,217,7.0,21.0,43,0.00,,,0.00,Wunderground v.1.15,2013-02-13 21:29:00,
2013-02-13 14:31:00,31.9,11.9,22.44,WSW,243,7.0,21.0,43,0.00,,,0.00,Wunderground v.1.15,2013-02-13 21:31:00,
2013-02-13 14:37:00,31.9,11.4,22.44,South,179,5.0,21.0,42,0.00,,,0.00,Wunderground v.1.15,2013-02-13 21:37:00,
2013-02-13 14:39:00,32.0,12.0,22.44,West,267,5.0,21.0,43,0.00,,,0.00,Wunderground v.1.15,2013-02-13 21:39:00,
2013-02-13 14:43:00,32.4,11.8,22.44,WSW,240,4.0,4.0,42,0.00,,,0.00,Wunderground v.1.15,2013-02-13 21:43:00,
2013-02-13 14:45:00,32.5,11.4,22.44,SE,131,4.0,21.0,41,0.00,,,0.00,Wunderground v.1.15,2013-02-13 21:45:00,
2013-02-13 14:49:00,32.9,11.7,22.44,South,181,3.0,21.0,41,0.00,,,0.00,Wunderground v.1.15,2013-02-13 21:49:00,
2013-02-13 14:51:00,33.2,12.0,22.44,WSW,238,3.0,21.0,41,0.00,,,0.00,Wunderground v.1.15,2013-02-13 21:51:00,
2013-02-13 14:55:00,33.1,11.4,22.44,South,187,3.0,4.0,40,0.00,,,0.00,Wunderground v.1.15,2013-02-13 21:55:00,
2013-02-13 14:59:00,33.2,11.5,22.44,South,184,4.0,21.0,40,0.00,,,0.00,Wunderground v.1.15,2013-02-13 21:59:00,
2013-02-13 15:01:00,33.2,11.5,22.44,SW,236,5.0,21.0,40,0.00,,,0.00,Wunderground v.1.15,2013-02-13 22:01:00,
2013-02-13 15:05:00,33.4,11.1,22.44,SW,214,4.0,5.0,39,0.00,,,0.00,Wunderground v.1.15,2013-02-13 22:05:00,
2013-02-13 15:11:00,33.2,11.5,22.44,South,176,4.0,21.0,40,0.00,,,0.00,Wunderground v.1.15,2013-02-13 22:11:00,
2013-02-13 15:13:00,33.5,11.7,22.44,South,181,4.0,4.0,40,0.00,,,0.00,Wunderground v.1.15,2013-02-13 22:13:00,
2013-02-13 15:15:00,33.8,11.4,22.44,West,270,4.0,6.0,39,0.00,,,0.00,Wunderground v.1.15,2013-02-13 22:15:00,
2013-02-13 15:21:00,33.6,10.7,22.43,WSW,238,6.0,21.0,38,0.00,,,0.00,Wunderground v.1.15,2013-02-13 22:21:00,
2013-02-13 15:23:00,33.6,11.2,22.44,SW,236,6.0,6.0,39,0.00,,,0.00,Wunderground v.1.15,2013-02-13 22:23:00,
2013-02-13 15:29:00,33.4,11.1,22.43,WSW,238,7.0,21.0,39,0.00,,,0.00,Wunderground v.1.15,2013-02-13 22:29:00,
2013-02-13 15:31:00,33.4,11.1,22.43,SW,224,7.0,21.0,39,0.00,,,0.00,Wunderground v.1.15,2013-02-13 22:31:00,
2013-02-13 15:35:00,33.0,10.7,22.43,WSW,243,8.0,21.0,39,0.00,,,0.00,Wunderground v.1.15,2013-02-13 22:35:00,
2013-02-13 15:37:00,32.8,10.5,22.43,WSW,238,10.0,21.0,39,0.00,,,0.00,Wunderground v.1.15,2013-02-13 22:37:00,
2013-02-13 15:39:00,32.7,10.4,22.43,WSW,243,10.0,21.0,39,0.00,,,0.00,Wunderground v.1.15,2013-02-13 22:39:00,
2013-02-13 15:43:00,32.7,10.4,22.43,SW,233,11.0,21.0,39,0.00,,,0.00,Wunderground v.1.15,2013-02-13 22:43:00,
2013-02-13 15:45:00,32.5,10.3,22.43,WSW,248,11.0,21.0,39,0.00,,,0.00,Wunderground v.1.15,2013-02-13 22:45:00,
2013-02-13 15:49:00,32.5,10.8,22.43,SW,219,11.0,21.0,40,0.00,,,0.00,Wunderground v.1.15,2013-02-13 22:49:00,
2013-02-13 15:51:00,32.3,10.6,22.44,West,259,11.0,21.0,40,0.00,,,0.00,Wunderground v.1.15,2013-02-13 22:51:00,
2013-02-13 15:55:00,32.2,11.1,22.43,SW,219,10.0,21.0,41,0.00,,,0.00,Wunderground v.1.15,2013-02-13 22:55:00,
2013-02-13 15:59:00,32.1,11.0,22.43,SW,217,10.0,21.0,41,0.00,,,0.00,Wunderground v.1.15,2013-02-13 22:59:00,
2013-02-13 16:03:00,32.0,10.9,22.44,WSW,243,10.0,10.0,41,0.00,,,0.00,Wunderground v.1.15,2013-02-13 23:03:00,
2013-02-13 16:07:00,31.8,11.3,22.44,SW,232,10.0,21.0,42,0.00,,,0.00,Wunderground v.1.15,2013-02-13 23:07:00,
2013-02-13 16:09:00,31.6,11.1,22.44,WSW,256,11.0,21.0,42,0.00,,,0.00,Wunderground v.1.15,2013-02-13 23:09:00,
2013-02-13 16:15:00,31.7,11.2,22.43,SW,236,11.0,21.0,42,0.00,,,0.00,Wunderground v.1.15,2013-02-13 23:15:00,
2013-02-13 16:17:00,31.6,11.1,22.43,WSW,239,11.0,21.0,42,0.00,,,0.00,Wunderground v.1.15,2013-02-13 23:17:00,
2013-02-13 16:23:00,31.2,11.3,22.44,WNW,285,12.0,12.0,43,0.00,,,0.00,Wunderground v.1.15,2013-02-13 23:23:00,
2013-02-13 16:27:00,31.1,11.2,22.43,WSW,253,12.0,21.0,43,0.00,,,0.00,Wunderground v.1.15,2013-02-13 23:27:00,
2013-02-13 16:29:00,31.1,11.2,22.44,WSW,256,12.0,21.0,43,0.00,,,0.00,Wunderground v.1.15,2013-02-13 23:29:00,
2013-02-13 16:33:00,31.0,11.1,22.44,West,264,12.0,21.0,43,0.00,,,0.00,Wunderground v.1.15,2013-02-13 23:33:00,
2013-02-13 16:37:00,30.9,11.0,22.44,West,278,12.0,21.0,43,0.00,,,0.00,Wunderground v.1.15,2013-02-13 23:37:00,
2013-02-13 16:39:00,30.9,11.0,22.44,SW,217,12.0,24.0,43,0.00,,,0.00,Wunderground v.1.15,2013-02-13 23:39:00,
2013-02-13 16:45:00,30.0,10.7,22.43,West,270,13.0,16.0,44,0.00,,,0.00,Wunderground v.1.15,2013-02-13 23:45:00,
2013-02-13 16:49:00,29.6,10.8,22.44,WSW,243,13.0,23.0,45,0.00,,,0.00,Wunderground v.1.15,2013-02-13 23:49:00,
2013-02-13 16:55:00,29.3,11.1,22.43,SW,235,13.0,21.0,46,0.00,,,0.00,Wunderground v.1.15,2013-02-13 23:55:00,
2013-02-13 16:59:00,29.2,11.0,22.43,SW,236,11.0,21.0,46,0.00,,,0.00,Wunderground v.1.15,2013-02-13 23:59:00,
2013-02-13 17:03:00,29.2,10.5,22.43,WSW,249,10.0,10.0,45,0.00,,,0.00,Wunderground v.1.15,2013-02-14 00:03:00,
2013-02-13 17:05:00,29.2,10.0,22.43,WSW,239,9.0,21.0,44,0.00,,,0.00,Wunderground v.1.15,2013-02-14 00:05:00,
2013-02-13 17:07:00,29.3,10.1,22.43,WSW,248,9.0,21.0,44,0.00,,,0.00,Wunderground v.1.15,2013-02-14 00:07:00,
2013-02-13 17:09:00,29.3,10.1,22.43,SSW,208,9.0,21.0,44,0.00,,,0.00,Wunderground v.1.15,2013-02-14 00:09:00,
2013-02-13 17:13:00,29.3,9.5,22.42,WNW,298,7.0,7.0,43,0.00,,,0.00,Wunderground v.1.15,2013-02-14 00:13:00,
2013-02-13 17:17:00,29.3,9.0,22.43,NNW,332,6.0,21.0,42,0.00,,,0.00,Wunderground v.1.15,2013-02-14 00:17:00,
2013-02-13 17:23:00,29.2,8.9,22.43,West,262,6.0,21.0,42,0.00,,,0.00,Wunderground v.1.15,2013-02-14 00:23:00,
2013-02-13 17:25:00,29.2,8.9,22.42,WNW,287,6.0,21.0,42,0.00,,,0.00,Wunderground v.1.15,2013-02-14 00:25:00,
2013-02-13 17:29:00,29.3,9.0,22.43,SW,214,6.0,21.0,42,0.00,,,0.00,Wunderground v.1.15,2013-02-14 00:29:00,
2013-02-13 17:31:00,29.3,8.5,22.43,SW,231,6.0,21.0,41,0.00,,,0.00,Wunderground v.1.15,2013-02-14 00:31:00,
2013-02-13 17:33:00,29.3,8.5,22.42,WSW,239,7.0,7.0,41,0.00,,,0.00,Wunderground v.1.15,2013-02-14 00:33:00,
2013-02-13 17:39:00,29.2,8.4,22.43,SSE,150,6.0,21.0,41,0.00,,,0.00,Wunderground v.1.15,2013-02-14 00:39:00,
2013-02-13 17:41:00,29.1,8.3,22.43,West,274,6.0,21.0,41,0.00,,,0.00,Wunderground v.1.15,2013-02-14 00:41:00,
2013-02-13 17:45:00,29.1,8.8,22.43,ESE,120,5.0,9.0,42,0.00,,,0.00,Wunderground v.1.15,2013-02-14 00:45:00,
2013-02-13 17:47:00,29.1,8.3,22.43,WSW,238,6.0,14.0,41,0.00,,,0.00,Wunderground v.1.15,2013-02-14 00:47:00,
2013-02-13 17:51:00,29.0,8.7,22.43,WSW,250,8.0,21.0,42,0.00,,,0.00,Wunderground v.1.15,2013-02-14 00:51:00,
2013-02-13 17:53:00,29.1,8.8,22.43,WSW,238,9.0,9.0,42,0.00,,,0.00,Wunderground v.1.15,2013-02-14 00:53:00,
2013-02-13 17:57:00,29.0,8.7,22.44,WSW,252,9.0,21.0,42,0.00,,,0.00,Wunderground v.1.15,2013-02-14 00:57:00,
2013-02-13 17:59:00,28.9,8.6,22.44,SW,225,9.0,21.0,42,0.00,,,0.00,Wunderground v.1.15,2013-02-14 00:59:00,
2013-02-13 18:03:00,28.8,9.1,22.44,SW,217,8.0,21.0,43,0.00,,,0.00,Wunderground v.1.15,2013-02-14 01:03:00,
2013-02-13 18:07:00,28.8,8.6,22.44,WSW,240,8.0,21.0,42,0.00,,,0.00,Wunderground v.1.15,2013-02-14 01:07:00,
2013-02-13 18:09:00,28.9,9.2,22.44,SW,228,9.0,21.0,43,0.00,,,0.00,Wunderground v.1.15,2013-02-14 01:09:00,
2013-02-13 18:15:00,28.8,9.1,22.45,WSW,238,10.0,21.0,43,0.00,,,0.00,Wunderground v.1.15,2013-02-14 01:15:00,
2013-02-13 18:17:00,28.7,9.0,22.45,SW,235,10.0,21.0,43,0.00,,,0.00,Wunderground v.1.15,2013-02-14 01:17:00,
2013-02-13 18:23:00,28.7,9.0,22.44,WSW,249,11.0,21.0,43,0.00,,,0.00,Wunderground v.1.15,2013-02-14 01:23:00,
2013-02-13 18:27:00,28.8,8.6,22.44,SW,219,11.0,21.0,42,0.00,,,0.00,Wunderground v.1.15,2013-02-14 01:27:00,
2013-02-13 18:33:00,28.6,8.4,22.44,SW,214,10.0,21.0,42,0.00,,,0.00,Wunderground v.1.15,2013-02-14 01:33:00,
2013-02-13 18:35:00,28.6,8.4,22.44,SSW,204,9.0,21.0,42,0.00,,,0.00,Wunderground v.1.15,2013-02-14 01:35:00,
2013-02-13 18:41:00,28.7,8.5,22.44,SSE,148,10.0,21.0,42,0.00,,,0.00,Wunderground v.1.15,2013-02-14 01:41:00,
2013-02-13 18:47:00,28.8,8.6,22.44,WSW,242,11.0,21.0,42,0.00,,,0.00,Wunderground v.1.15,2013-02-14 01:47:00,
2013-02-13 18:49:00,28.7,8.5,22.45,WSW,245,11.0,21.0,42,0.00,,,0.00,Wunderground v.1.15,2013-02-14 01:49:00,
2013-02-13 18:51:00,28.6,8.4,22.45,SE,145,11.0,21.0,42,0.00,,,0.00,Wunderground v.1.15,2013-02-14 01:51:00,
2013-02-13 18:55:00,28.5,8.8,22.45,SW,224,10.0,21.0,43,0.00,,,0.00,Wunderground v.1.15,2013-02-14 01:55:00,
2013-02-13 18:59:00,28.3,8.6,22.45,SW,219,8.0,21.0,43,0.00,,,0.00,Wunderground v.1.15,2013-02-14 01:59:00,
2013-02-13 19:01:00,28.4,8.2,22.45,SW,236,8.0,21.0,42,0.00,,,0.00,Wunderground v.1.15,2013-02-14 02:01:00,
2013-02-13 19:03:00,28.4,8.7,22.45,SW,225,8.0,8.0,43,0.00,,,0.00,Wunderground v.1.15,2013-02-14 02:03:00,
2013-02-13 19:07:00,28.2,8.5,22.45,NE,39,8.0,21.0,43,0.00,,,0.00,Wunderground v.1.15,2013-02-14 02:07:00,
2013-02-13 19:13:00,28.1,9.0,22.45,WSW,256,8.0,22.0,44,0.00,,,0.00,Wunderground v.1.15,2013-02-14 02:13:00,
2013-02-13 19:15:00,28.2,9.0,22.45,WSW,246,9.0,22.0,44,0.00,,,0.00,Wunderground v.1.15,2013-02-14 02:15:00,
2013-02-13 19:17:00,28.2,9.0,22.45,SW,221,11.0,22.0,44,0.00,,,0.00,Wunderground v.1.15,2013-02-14 02:17:00,
2013-02-13 19:19:00,28.1,9.0,22.45,West,267,11.0,22.0,44,0.00,,,0.00,Wunderground v.1.15,2013-02-14 02:19:00,
2013-02-13 19:25:00,27.9,9.3,22.46,WSW,248,10.0,20.0,45,0.00,,,0.00,Wunderground v.1.15,2013-02-14 02:25:00,
2013-02-13 19:27:00,27.9,9.8,22.46,WSW,256,10.0,21.0,46,0.00,,,0.00,Wunderground v.1.15,2013-02-14 02:27:00,
2013-02-13 19:29:00,27.8,9.2,22.46,SW,226,10.0,21.0,45,0.00,,,0.00,Wunderground v.1.15,2013-02-14 02:29:00,
2013-02-13 19:33:00,27.7,9.6,22.46,SSW,204,9.0,9.0,46,0.00,,,0.00,Wunderground v.1.15,2013-02-14 02:33:00,
2013-02-13 19:35:00,27.7,9.6,22.46,WNW,302,9.0,21.0,46,0.00,,,0.00,Wunderground v.1.15,2013-02-14 02:35:00,
2013-02-13 19:39:00,27.6,10.0,22.46,SW,225,8.0,21.0,47,0.00,,,0.00,Wunderground v.1.15,2013-02-14 02:39:00,
2013-02-13 19:41:00,27.6,9.5,22.46,WSW,253,8.0,21.0,46,0.00,,,0.00,Wunderground v.1.15,2013-02-14 02:41:00,
2013-02-13 19:47:00,27.5,9.9,22.46,WSW,239,8.0,21.0,47,0.00,,,0.00,Wunderground v.1.15,2013-02-14 02:47:00,
2013-02-13 19:49:00,27.4,9.8,22.46,SW,231,8.0,21.0,47,0.00,,,0.00,Wunderground v.1.15,2013-02-14 02:49:00,
2013-02-13 19:55:00,27.4,9.8,22.46,West,277,8.0,21.0,47,0.00,,,0.00,Wunderground v.1.15,2013-02-14 02:55:00,
2013-02-13 20:01:00,27.3,10.2,22.46,WNW,301,7.0,21.0,48,0.00,,,0.00,Wunderground v.1.15,2013-02-14 03:01:00,
2013-02-13 20:03:00,27.3,10.2,22.46,SSW,200,7.0,21.0,48,0.00,,,0.00,Wunderground v.1.15,2013-02-14 03:03:00,
2013-02-13 20:07:00,27.2,10.1,22.47,SSW,204,8.0,21.0,48,0.00,,,0.00,Wunderground v.1.15,2013-02-14 03:07:00,
2013-02-13 20:09:00,27.2,10.1,22.46,SW,214,7.0,21.0,48,0.00,,,0.00,Wunderground v.1.15,2013-02-14 03:09:00,
2013-02-13 20:11:00,27.3,10.2,22.46,SW,236,7.0,21.0,48,0.00,,,0.00,Wunderground v.1.15,2013-02-14 03:11:00,
2013-02-13 20:15:00,27.3,10.2,22.46,NW,316,7.0,21.0,48,0.00,,,0.00,Wunderground v.1.15,2013-02-14 03:15:00,
2013-02-13 20:17:00,27.3,10.2,22.46,SSW,211,7.0,21.0,48,0.00,,,0.00,Wunderground v.1.15,2013-02-14 03:17:00,
2013-02-13 20:21:00,27.3,10.6,22.46,West,263,8.0,21.0,49,0.00,,,0.00,Wunderground v.1.15,2013-02-14 03:21:00,
2013-02-13 20:23:00,27.2,10.1,22.46,WSW,243,7.0,7.0,48,0.00,,,0.00,Wunderground v.1.15,2013-02-14 03:23:00,
2013-02-13 20:27:00,27.3,10.2,22.47,WSW,246,7.0,21.0,48,0.00,,,0.00,Wunderground v.1.15,2013-02-14 03:27:00,
2013-02-13 20:29:00,27.3,10.2,22.46,South,186,7.0,21.0,48,0.00,,,0.00,Wunderground v.1.15,2013-02-14 03:29:00,
2013-02-13 20:33:00,27.2,10.1,22.46,SSE,165,7.0,7.0,48,0.00,,,0.00,Wunderground v.1.15,2013-02-14 03:33:00,
2013-02-13 20:35:00,27.2,10.1,22.46,SW,225,6.0,21.0,48,0.00,,,0.00,Wunderground v.1.15,2013-02-14 03:35:00,
2013-02-13 20:39:00,27.1,10.4,22.47,NNW,333,7.0,21.0,49,0.00,,,0.00,Wunderground v.1.15,2013-02-14 03:39:00,
2013-02-13 20:41:00,27.1,10.4,22.47,WSW,250,6.0,21.0,49,0.00,,,0.00,Wunderground v.1.15,2013-02-14 03:41:00,
2013-02-13 20:43:00,27.1,10.4,22.47,SSW,202,6.0,6.0,49,0.00,,,0.00,Wunderground v.1.15,2013-02-14 03:43:00,
2013-02-13 20:45:00,27.0,10.4,22.47,WSW,240,6.0,21.0,49,0.00,,,0.00,Wunderground v.1.15,2013-02-14 03:45:00,
2013-02-13 20:51:00,27.1,10.4,22.47,SW,225,5.0,21.0,49,0.00,,,0.00,Wunderground v.1.15,2013-02-14 03:51:00,
2013-02-13 20:53:00,27.0,10.8,22.47,North,8,5.0,5.0,50,0.00,,,0.00,Wunderground v.1.15,2013-02-14 03:53:00,
2013-02-13 20:55:00,27.0,10.8,22.47,North,349,5.0,7.0,50,0.00,,,0.00,Wunderground v.1.15,2013-02-14 03:55:00,
2013-02-13 21:01:00,27.1,10.4,22.47,WSW,238,5.0,21.0,49,0.00,,,0.00,Wunderground v.1.15,2013-02-14 04:01:00,
2013-02-13 21:05:00,27.2,11.0,22.46,WNW,283,6.0,21.0,50,0.00,,,0.00,Wunderground v.1.15,2013-02-14 04:05:00,
2013-02-13 21:11:00,27.4,10.3,22.47,SSE,164,6.0,21.0,48,0.00,,,0.00,Wunderground v.1.15,2013-02-14 04:11:00,
2013-02-13 21:13:00,27.4,10.3,22.47,WNW,303,6.0,6.0,48,0.00,,,0.00,Wunderground v.1.15,2013-02-14 04:13:00,
2013-02-13 21:17:00,27.5,9.9,22.47,NW,321,6.0,21.0,47,0.00,,,0.00,Wunderground v.1.15,2013-02-14 04:17:00,
2013-02-13 21:19:00,27.6,9.5,22.47,NNW,343,5.0,21.0,46,0.00,,,0.00,Wunderground v.1.15,2013-02-14 04:19:00,
2013-02-13 21:23:00,27.7,9.6,22.47,SW,226,5.0,5.0,46,0.00,,,0.00,Wunderground v.1.15,2013-02-14 04:23:00,
2013-02-13 21:25:00,27.7,9.6,22.47,SW,228,5.0,7.0,46,0.00,,,0.00,Wunderground v.1.15,2013-02-14 04:25:00,
2013-02-13 21:27:00,27.7,9.6,22.47,WSW,253,5.0,21.0,46,0.00,,,0.00,Wunderground v.1.15,2013-02-14 04:27:00,
2013-02-13 21:33:00,27.8,10.2,22.47,SSW,208,5.0,5.0,47,0.00,,,0.00,Wunderground v.1.15,2013-02-14 04:33:00,
2013-02-13 21:35:00,27.7,10.5,22.48,SW,224,6.0,6.0,48,0.00,,,0.00,Wunderground v.1.15,2013-02-14 04:35:00,
2013-02-13 21:39:00,27.6,10.4,22.48,SSW,210,6.0,21.0,48,0.00,,,0.00,Wunderground v.1.15,2013-02-14 04:39:00,
2013-02-13 21:41:00,27.5,10.4,22.47,North,4,6.0,21.0,48,0.00,,,0.00,Wunderground v.1.15,2013-02-14 04:41:00,
2013-02-13 21:45:00,27.6,10.4,22.47,North,352,6.0,21.0,48,0.00,,,0.00,Wunderground v.1.15,2013-02-14 04:45:00,
2013-02-13 21:47:00,27.6,10.4,22.48,WSW,245,7.0,21.0,48,0.00,,,0.00,Wunderground v.1.15,2013-02-14 04:47:00,
2013-02-13 21:53:00,27.6,10.4,22.47,SSE,150,6.0,21.0,48,0.00,,,0.00,Wunderground v.1.15,2013-02-14 04:53:00,
2013-02-13 21:57:00,27.4,11.2,22.48,WSW,253,5.0,21.0,50,0.00,,,0.00,Wunderground v.1.15,2013-02-14 04:57:00,
2013-02-13 22:01:00,27.4,11.2,22.48,WSW,253,5.0,21.0,50,0.00,,,0.00,Wunderground v.1.15,2013-02-14 05:01:00,
2013-02-13 22:03:00,27.4,11.2,22.48,WSW,250,6.0,21.0,50,0.00,,,0.00,Wunderground v.1.15,2013-02-14 05:03:00,
2013-02-13 22:07:00,27.5,11.3,22.48,WNW,297,8.0,21.0,50,0.00,,,0.00,Wunderground v.1.15,2013-02-14 05:07:00,
2013-02-13 22:09:00,27.5,11.3,22.48,SW,236,8.0,21.0,50,0.00,,,0.00,Wunderground v.1.15,2013-02-14 05:09:00,
2013-02-13 22:13:00,27.5,11.3,22.49,NW,318,8.0,8.0,50,0.00,,,0.00,Wunderground v.1.15,2013-02-14 05:13:00,
2013-02-13 22:15:00,27.5,11.3,22.48,SW,236,9.0,9.0,50,0.00,,,0.00,Wunderground v.1.15,2013-02-14 05:15:00,
2013-02-13 22:21:00,27.4,11.2,22.48,WSW,257,9.0,21.0,50,0.00,,,0.00,Wunderground v.1.15,2013-02-14 05:21:00,
2013-02-13 22:25:00,27.3,11.1,22.49,WSW,242,8.0,21.0,50,0.00,,,0.00,Wunderground v.1.15,2013-02-14 05:25:00,
2013-02-13 22:27:00,27.3,11.1,22.48,NNW,330,8.0,21.0,50,0.00,,,0.00,Wunderground v.1.15,2013-02-14 05:27:00,
2013-02-13 22:31:00,27.3,11.5,22.49,SSE,153,8.0,21.0,51,0.00,,,0.00,Wunderground v.1.15,2013-02-14 05:31:00,
2013-02-13 22:33:00,27.3,11.1,22.49,SW,222,8.0,21.0,50,0.00,,,0.00,Wunderground v.1.15,2013-02-14 05:33:00,
2013-02-13 22:37:00,27.2,11.4,22.49,WSW,243,9.0,21.0,51,0.00,,,0.00,Wunderground v.1.15,2013-02-14 05:37:00,
2013-02-13 22:39:00,27.2,11.4,22.49,WSW,240,9.0,21.0,51,0.00,,,0.00,Wunderground v.1.15,2013-02-14 05:39:00,
2013-02-13 22:45:00,27.2,11.4,22.49,SW,218,10.0,21.0,51,0.00,,,0.00,Wunderground v.1.15,2013-02-14 05:45:00,
2013-02-13 22:47:00,27.3,11.1,22.49,West,266,10.0,21.0,50,0.00,,,0.00,Wunderground v.1.15,2013-02-14 05:47:00,
2013-02-13 22:51:00,27.4,10.7,22.49,WSW,243,10.0,21.0,49,0.00,,,0.00,Wunderground v.1.15,2013-02-14 05:51:00,
2013-02-13 22:55:00,27.4,10.7,22.49,WSW,250,9.0,21.0,49,0.00,,,0.00,Wunderground v.1.15,2013-02-14 05:55:00,
2013-02-13 22:57:00,27.4,10.3,22.49,WSW,252,8.0,21.0,48,0.00,,,0.00,Wunderground v.1.15,2013-02-14 05:57:00,
2013-02-13 23:03:00,27.5,10.8,22.49,SW,226,9.0,21.0,49,0.00,,,0.00,Wunderground v.1.15,2013-02-14 06:03:00,
2013-02-13 23:05:00,27.6,10.4,22.49,WSW,253,9.0,21.0,48,0.00,,,0.00,Wunderground v.1.15,2013-02-14 06:05:00,
2013-02-13 23:11:00,27.4,10.7,22.49,West,278,8.0,21.0,49,0.00,,,0.00,Wunderground v.1.15,2013-02-14 06:11:00,
2013-02-13 23:17:00,27.5,10.8,22.49,South,184,8.0,21.0,49,0.00,,,0.00,Wunderground v.1.15,2013-02-14 06:17:00,
2013-02-13 23:19:00,27.4,10.7,22.49,NNE,19,7.0,21.0,49,0.00,,,0.00,Wunderground v.1.15,2013-02-14 06:19:00,
2013-02-13 23:25:00,27.5,10.8,22.49,West,271,7.0,21.0,49,0.00,,,0.00,Wunderground v.1.15,2013-02-14 06:25:00,
2013-02-13 23:27:00,27.6,10.9,22.49,West,259,8.0,21.0,49,0.00,,,0.00,Wunderground v.1.15,2013-02-14 06:27:00,
2013-02-13 23:31:00,27.6,10.9,22.49,SW,236,8.0,21.0,49,0.00,,,0.00,Wunderground v.1.15,2013-02-14 06:31:00,
2013-02-13 23:37:00,27.6,10.9,22.49,WSW,238,9.0,21.0,49,0.00,,,0.00,Wunderground v.1.15,2013-02-14 06:37:00,
2013-02-13 23:39:00,27.6,10.9,22.49,West,267,9.0,21.0,49,0.00,,,0.00,Wunderground v.1.15,2013-02-14 06:39:00,
2013-02-13 23:45:00,27.7,11.0,22.49,WSW,250,9.0,21.0,49,0.00,,,0.00,Wunderground v.1.15,2013-02-14 06:45:00,
2013-02-13 23:47:00,27.7,11.0,22.49,SSW,193,8.0,21.0,49,0.00,,,0.00,Wunderground v.1.15,2013-02-14 06:47:00,
2013-02-13 23:49:00,27.6,10.9,22.49,SW,224,8.0,21.0,49,0.00,,,0.00,Wunderground v.1.15,2013-02-14 06:49:00,
2013-02-13 23:51:00,27.7,10.5,22.49,SW,231,9.0,21.0,48,0.00,,,0.00,Wunderground v.1.15,2013-02-14 06:51:00,
2013-02-13 23:57:00,27.9,10.7,22.49,WSW,250,9.0,21.0,48,0.00,,,0.00,Wunderground v.1.15,2013-02-14 06:57:00,